#timestamp,LO_Frequency,Hit,StdDev 
1624723215.5,286046999.0,N
1624723235.3,286046999.4,N
1624723255.2,286046999.4,N
1624723275.0,286046999.2,N
1624723275.9,286046999.2,N
1624723295.8,286046999.1,N
1624723315.6,286046999.5,N
1624723335.4,286046996.6,Y
1624723355.3,286046999.2,P
1624723375.1,286046999.5,P
1624723395.8,286046999.1,P
1624723415.7,286046999.0,Y
1624723435.5,286046998.7,P
1624723455.4,286046998.8,P
1624723475.2,286046999.4,N
1624723495.0,286046998.2,Y
1624723495.9,286046998.2,P
1624723515.8,286047000.3,N
1624723535.6,286047000.5,N
1624723555.4,286047001.1,N
1624723575.3,286047000.5,N
1624723595.1,286047000.6,N
1624723615.9,286047001.0,N
1624723635.7,286047001.0,N
1624723655.5,286046998.5,N
1624723675.4,286046998.1,N
1624723695.2,286046998.6,N
1624723715.0,286047000.8,N
1624723715.9,286047000.8,N
1624723735.8,286046998.3,N
1624723755.6,286046998.8,N
1624723775.5,286046998.7,N
1624723795.3,286046999.0,N
1624723815.1,286046998.6,N
1624723835.9,286046998.4,N
1624723855.7,286046999.2,N
1624723875.5,286046999.5,N
1624723895.4,286046999.3,N
1624723915.2,286046997.0,N
1624723935.1,286046999.6,N
1624723936.0,286046999.6,N
1624723955.8,286046997.0,N
1624723975.6,286046996.8,N
1624723995.5,286046999.5,N
1624724015.3,286046999.4,N
1624724035.1,286046996.9,N
1624724055.9,286046999.1,N
1624724075.7,286046999.5,N
1624724095.6,286046997.1,N
1624724115.4,286046996.6,N
1624724135.2,286046996.6,N
1624724155.1,286046997.2,N
1624724156.0,286046997.2,N
1624724175.8,286046996.5,N
1624724195.6,286046996.5,N
1624724215.5,286046996.9,N
1624724235.3,286046996.7,N
1624724255.1,286046997.2,N
1624724275.9,286046997.3,N
1624724295.7,286046997.8,N
1624724315.6,286046997.5,N
1624724335.4,286046997.0,N
1624724355.2,286046997.4,N
1624724375.1,286046997.7,N
1624724376.0,286046997.7,N
1624724395.8,286046997.8,N
1624724415.6,286046997.8,N
1624724435.5,286046997.5,N
1624724455.3,286046997.5,N
1624724475.2,286046994.9,Y
1624724495.9,286046998.5,P
1624724515.7,286046998.8,N
1624724535.6,286046999.3,N
1624724555.4,286046998.5,N
1624724575.2,286046999.0,N
1624724595.1,286046999.3,N
1624724596.0,286046999.3,N
1624724615.8,286046998.8,N
1624724635.7,286046998.7,N
1624724655.5,286046999.2,N
1624724675.3,286046999.5,N
1624724695.2,286046998.9,N
1624724715.0,286046999.0,N
1624724715.9,286046999.0,N
1624724735.8,286046999.4,N
1624724755.6,286046996.9,Y
1624724775.4,286046998.5,P
1624724795.3,286046999.0,P
1624724815.1,286046998.3,P
1624724835.9,286046998.4,Y
1624724855.7,286047000.6,P
1624724875.5,286047001.0,N
1624724895.4,286046998.5,N
1624724915.2,286047001.1,N
1624724935.0,286047001.1,N
1624724935.9,286047001.1,N
1624724955.8,286047000.9,N
1624724975.6,286047000.6,N
1624724995.5,286047000.6,N
1624725015.3,286047001.0,N
1624725035.1,286046998.2,N
1624725055.9,286047001.2,N
1624725075.7,286047001.0,N
1624725095.5,286046998.5,N
1624725115.4,286046998.3,N
1624725135.2,286046998.7,N
1624725155.1,286046998.1,N
1624725156.0,286046998.1,N
1624725175.8,286046998.1,N
1624725195.6,286046998.2,N
1624725215.5,286046998.3,N
1624725235.3,286046999.3,N
1624725255.1,286046999.4,N
1624725275.9,286046998.3,N
1624725295.7,286046998.7,N
1624725315.6,286046998.7,N
1624725335.4,286046999.0,N
1624725355.2,286046999.0,N
1624725375.1,286046999.4,N
1624725376.0,286046999.4,N
1624725395.8,286046999.1,N
1624725415.6,286046999.4,N
1624725435.5,286046999.2,N
1624725455.3,286046998.9,N
1624725475.2,286046996.6,Y
1624725495.9,286046999.4,P
1624725515.7,286046998.7,P
1624725535.6,286046998.7,P
1624725555.4,286046999.6,N
1624725575.2,286046998.9,Y
1624725595.1,286046998.4,P
1624725596.0,286046998.4,P
1624725615.8,286046998.6,P
1624725635.7,286046998.5,Y
1624725655.5,286047000.2,P
1624725675.3,286046999.8,N
1624725695.2,286047000.2,N
1624725715.0,286047000.7,N
1624725715.9,286047000.7,N
1624725735.8,286047000.6,N
1624725755.6,286047000.9,N
1624725775.4,286047001.0,N
1624725795.3,286047000.7,N
1624725815.1,286047001.1,N
1624725835.8,286047000.8,N
1624725855.7,286047000.9,N
1624725875.5,286047001.2,N
1624725895.3,286046998.1,Y
1624725915.2,286046998.9,P
1624725935.0,286046999.0,N
1624725935.9,286046999.0,N
1624725955.8,286046998.4,N
1624725975.6,286046998.9,N
1624725995.4,286046998.3,N
1624726015.3,286046998.7,N
1624726035.1,286046998.7,N
1624726055.8,286046998.4,N
1624726075.7,286046999.1,N
1624726095.5,286046999.4,N
1624726115.4,286046999.3,N
1624726135.2,286046999.1,N
1624726155.0,286046999.2,N
1624726155.9,286046999.2,N
1624726175.8,286046999.1,N
1624726195.6,286046999.2,N
1624726215.4,286046999.6,N
1624726235.3,286046999.6,N
1624726255.1,286046999.6,N
1624726275.9,286046996.5,Y
1624726295.7,286046999.0,P
1624726315.5,286046998.5,P
1624726335.4,286046999.0,P
1624726355.2,286046999.3,Y
1624726375.0,286047000.8,P
1624726375.9,286047000.8,N
1624726395.8,286047000.9,N
1624726415.6,286047000.6,N
1624726435.5,286047000.6,N
1624726455.3,286046999.9,N
1624726475.1,286047001.0,N
1624726495.9,286047000.7,N
1624726515.7,286047000.8,N
1624726535.5,286047000.5,N
1624726555.4,286047000.5,N
1624726575.2,286047000.7,N
1624726595.1,286047000.7,N
1624726596.0,286047000.7,N
1624726615.8,286047000.6,N
1624726635.6,286047000.5,N
1624726655.5,286047000.5,N
1624726675.3,286047000.9,N
1624726695.2,286047000.7,N
1624726715.9,286047000.7,N
1624726735.7,286047000.7,N
1624726755.6,286046998.2,Y
1624726775.4,286046999.3,P
1624726795.2,286046998.7,N
